BEIJING 1 1 28890U 05043A 26173.82520795 .00000613 00000+0 12767-3 0 9991 2 28890 98.2921 307.0698 0013277 264.3233 95.6455 14.63536319101474 HUANJING 1A (HJ-1A) 1 33320U 08041A 26173.83022497 .00000453 00000+0 60386-4 0 9996 2 33320 97.6689 159.4502 0020316 117.2741 243.0546 14.83994819959248 HUANJING 1B (HJ-1B) 1 33321U 08041B 26173.86932272 .00001170 00000+0 14753-3 0 9994 2 33321 97.6525 162.6425 0036592 162.2828 197.9672 14.83326262959256 YAOGAN-4 1 33446U 08061A 26173.56411475 .00000681 00000+0 89829-4 0 9991 2 33446 97.9306 107.0347 0015552 56.6189 303.6511 14.83208469946464 DEIMOS-1 1 35681U 09041A 26173.81600355 .00000723 00000+0 11391-3 0 9993 2 35681 97.7415 330.7997 0001987 123.9454 236.1945 14.75243388907718 UK-DMC 2 1 35683U 09041C 26173.78460434 .00000369 00000+0 60730-4 0 9991 2 35683 97.8847 308.6147 0001139 86.4220 273.7120 14.76041953907395 DMC3-FM1 1 40715U 15032A 26173.79524125 .00000758 00000+0 93214-4 0 9994 2 40715 97.6457 38.7497 0006778 45.5353 314.6416 14.85745451590742 DMC3-FM2 1 40716U 15032B 26173.88461956 -.00000066 00000+0 -16459-5 0 9998 2 40716 97.6511 40.4133 0007375 48.9030 311.2822 14.85748458590759 DMC3-FM3 1 40717U 15032C 26173.84063934 -.00000052 00000+0 -62466-7 0 9995 2 40717 97.6561 42.1277 0006489 49.8938 310.2846 14.85736459590758